Theta_e
323 320 321 319 321 321 321 320 318 318 319 321 320 321 321 321 317 317 319 315 315 315 314 313 315 315 314 314 313 310 309 308
322 322 320 319 321 321 321 320 319 319 320 321 321 320 321 320 317 314 320 316 315 315 314 314 315 314 316 315 313 312 311 310
324 322 321 320 320 321 321 320 319 320 320 321 322 322 322 319 318 319 318 316 315 315 315 315 315 316 317 316 316 314 313 311
324 322 320 320 319 320 321 320 320 319 319 320 321 322 322 321 321 321 320 318 317 316 315 317 318 317 318 317 317 316 315 312
323 321 319 319 319 318 320 320 319 319 319 319 321 320 321 322 321 320 321 321 321 320 318 319 321 319 319 319 318 318 316 314
323 320 319 318 318 318 319 320 319 319 318 318 319 320 321 321 322 321 322 322 322 322 323 322 322 321 321 321 320 318 317 315
323 320 318 317 317 318 319 319 319 319 318 317 318 320 319 321 321 321 321 321 321 321 322 322 322 322 322 322 321 320 319 316
322 319 317 316 316 318 318 318 318 318 318 317 317 318 319 319 320 320 319 319 319 320 320 320 321 321 321 322 322 321 320 318
323 321 319 317 316 317 317 316 316 317 318 318 317 317 317 317 318 317 317 317 317 318 319 319 319 319 320 321 321 322 321 321
323 321 320 318 317 316 317 316 316 316 316 317 317 317 317 317 317 317 317 316 319 320 320 320 320 320 320 321 321 321 321 322
322 322 320 319 317 316 316 316 316 316 315 315 316 316 317 318 317 316 316 319 321 321 320 319 319 320 320 322 322 320 321 322
323 322 321 319 317 315 315 316 315 314 314 314 315 316 317 317 317 315 314 317 319 320 320 319 319 321 322 321 321 321 321 319
321 322 322 319 317 315 314 315 315 314 314 314 315 315 315 315 317 317 318 318 320 321 321 321 322 322 322 322 321 321 320 319
319 319 320 321 319 318 316 315 315 315 316 316 317 318 318 319 319 320 320 320 320 321 321 321 321 322 321 321 320 318 318 317
317 318 319 320 321 320 319 318 317 316 317 318 319 319 319 320 320 320 320 320 320 321 322 322 322 321 319 319 318 317 314 311
314 316 316 318 319 321 320 320 319 319 320 320 320 320 321 321 322 321 321 321 321 322 322 321 321 320 319 317 315 312 309 307
313 314 315 314 317 319 321 321 320 320 320 321 321 321 321 322 323 323 323 322 322 322 321 320 319 316 316 314 310 307 305 304
313 315 317 318 319 319 319 319 321 321 320 321 320 318 319 322 322 322 321 321 320 318 316 314 313 313 309 307 306 304 302 301
310 312 315 318 320 319 317 317 318 319 318 317 317 318 319 319 318 318 316 313 312 311 310 308 307 305 303 302 303 302 300 298
Wind_Speed
15 15 15 16 18 20 21 21 25 25 21 20 22 21 19 30 27 24 26 29 28 27 26 25 22 20 21 18 17 16 16 13
15 16 18 17 19 20 22 24 27 28 26 22 24 25 25 26 34 35 28 29 26 24 25 24 22 23 20 18 17 16 15 14
13 17 18 19 20 20 21 22 28 29 28 24 17 25 27 31 31 32 30 30 27 27 27 25 25 24 22 23 21 17 14 16
12 13 18 19 20 21 21 22 24 27 25 25 18 23 19 27 32 30 27 26 27 26 25 25 25 26 26 26 24 22 19 19
14 13 18 20 22 22 23 24 25 25 27 31 25 25 18 20 31 31 26 27 26 26 27 28 28 30 27 28 24 25 22 21
16 18 22 21 21 26 27 28 25 29 29 32 31 26 28 27 30 29 29 29 30 29 28 31 30 30 30 27 26 27 28 28
13 19 19 19 21 26 29 28 27 29 34 33 34 33 30 28 31 32 33 33 32 32 32 32 31 30 29 29 30 30 32 33
15 16 15 22 27 30 29 30 29 31 34 36 38 38 33 33 35 36 34 33 34 35 32 32 32 32 32 32 33 33 34 34
17 18 21 25 27 31 32 32 30 34 36 36 37 35 36 34 32 32 33 34 34 32 32 30 32 33 35 34 35 36 37 34
17 17 23 26 28 32 35 31 32 33 36 35 32 33 33 31 34 32 33 34 32 29 29 30 30 30 33 33 34 36 35 28
13 14 20 26 27 29 33 31 33 33 33 32 30 30 31 32 31 34 36 36 36 36 35 33 30 28 29 29 32 32 31 32
13 14 21 22 23 29 35 37 34 34 36 32 29 28 30 35 41 44 46 45 43 41 42 38 33 32 33 30 32 27 27 30
9 11 16 22 25 28 32 30 33 30 31 31 40 41 42 49 52 49 40 40 47 43 37 32 36 35 34 32 33 35 29 31
6 8 12 16 24 28 30 32 33 35 34 39 37 38 41 41 39 41 37 39 41 42 38 37 31 29 31 31 31 31 30 31
6 6 9 14 21 25 27 31 36 37 39 38 39 39 46 33 29 34 37 38 40 38 37 34 31 28 27 26 27 26 27 26
9 9 9 9 16 22 26 29 35 37 37 38 42 44 41 37 37 35 34 34 35 33 32 30 29 27 27 26 24 25 22 17
9 8 6 8 14 21 27 28 32 36 35 35 34 33 33 35 31 28 28 29 29 30 29 28 29 23 20 20 20 20 17 18
11 11 13 12 16 16 16 16 21 30 29 29 29 28 26 24 20 20 21 22 23 23 22 21 19 16 16 15 15 17 20 21
12 10 6 12 15 14 14 14 17 21 21 21 22 23 20 17 16 17 17 18 17 17 17 17 15 14 15 18 19 21 21 19
Wind_Direction
197 201 197 195 189 194 185 189 184 180 175 170 175 175 167 179 183 187 190 188 185 182 182 185 187 190 189 186 180 176 180 180
187 194 193 192 185 185 181 176 181 184 181 173 174 181 189 185 193 186 206 200 194 192 196 198 198 203 200 198 195 192 185 195
179 183 178 183 184 179 182 181 185 186 181 173 178 176 191 198 200 208 204 201 199 204 205 208 211 213 213 211 208 207 204 202
182 186 191 183 184 186 181 182 189 187 183 177 175 186 183 193 203 203 201 201 208 212 214 219 220 220 222 219 218 218 209 207
191 195 204 196 191 188 187 188 190 184 185 188 182 182 184 195 197 205 205 208 214 214 217 223 228 228 228 229 228 228 224 214
186 194 201 197 190 189 187 192 199 189 188 191 193 190 195 199 198 202 206 212 216 220 223 228 230 233 237 240 238 235 234 232
187 185 182 191 186 189 196 195 200 199 193 195 196 199 199 200 202 205 212 217 222 227 229 232 237 241 243 247 246 246 243 238
173 171 175 182 190 190 193 196 198 202 201 202 204 208 205 208 210 212 216 222 227 231 234 238 242 246 250 252 254 252 248 244
181 181 179 182 191 191 192 193 196 202 206 209 211 214 218 220 224 224 228 231 235 240 244 249 250 253 256 255 254 253 250 252
185 182 183 183 186 190 194 198 202 202 203 206 208 217 222 227 231 235 241 246 251 255 259 260 261 261 262 261 258 256 256 252
175 182 189 191 189 187 192 198 203 205 206 206 207 215 227 233 238 243 245 250 253 255 256 259 262 264 266 266 262 259 257 246
179 185 189 187 186 187 192 199 200 201 203 205 209 219 230 236 239 241 243 247 251 253 254 251 250 255 258 255 251 253 253 254
192 181 172 178 185 188 196 196 200 200 201 203 211 215 226 234 234 236 238 238 246 248 243 247 259 248 246 238 245 250 255 250
183 172 180 182 188 192 195 196 197 199 197 203 210 216 225 236 233 234 236 237 240 243 244 240 242 240 240 252 252 257 255 246
219 206 197 192 194 194 194 196 197 196 200 203 211 217 228 239 242 234 234 235 238 241 236 235 237 251 250 251 255 257 247 235
217 214 212 202 195 194 199 195 194 194 199 201 209 217 224 232 237 240 242 237 236 239 236 239 242 250 250 251 253 243 231 215
219 219 233 216 211 202 204 201 195 192 195 202 209 214 218 225 232 229 236 240 239 240 237 238 247 238 247 250 236 218 201 185
212 211 217 219 206 207 191 191 193 192 193 198 203 207 209 213 222 229 225 225 229 227 228 223 218 225 226 215 204 186 172 165
215 224 189 161 162 159 166 164 174 175 174 183 194 198 199 201 211 221 221 220 212 205 204 202 190 172 171 174 172 163 154 151